CAPE
1391 1172 1193 996 1124 1123 1199 1183 883 715 168 0 1 0 1 4 2 0 38 85 120 87 71 59 44 19 25 21 27 23 10 24 22 17 13 12 13 13 14 15 12 14 11
910 689 1080 1040 1183 1500 1231 1294 1271 454 57 0 1 2 2 9 0 11 26 57 113 111 72 61 46 25 24 24 27 17 21 20 21 21 18 17 15 11 9 8 13 17 16
667 665 260 503 832 1018 818 1095 661 353 29 0 0 0 0 3 0 10 47 50 84 107 138 62 46 31 20 40 33 23 15 17 13 16 14 18 18 19 14 11 11 14 14
738 454 397 439 574 592 677 723 455 337 108 16 3 4 3 7 5 4 134 78 92 39 103 128 66 52 41 44 28 28 21 19 16 11 14 12 14 19 19 15 17 12 7
378 210 452 366 335 306 583 530 402 240 198 25 0 0 0 0 6 36 105 87 79 88 85 112 121 95 58 44 23 22 22 20 17 14 11 12 11 8 21 18 14 12 10
138 121 182 305 330 322 177 166 150 64 47 12 0 1 0 6 27 35 59 75 93 92 84 75 91 86 83 46 26 18 21 14 12 9 9 10 13 14 17 19 14 8 6
147 144 93 160 202 256 131 215 90 15 9 9 1 2 0 5 21 44 87 94 114 89 84 85 93 65 64 90 41 32 20 12 4 4 5 5 5 9 14 12 8 12 7
130 132 93 118 275 277 234 152 23 4 4 10 0 3 7 13 32 62 89 145 122 45 56 51 30 62 51 56 45 43 13 2 1 0 0 1 2 2 6 11 12 13 7
171 130 155 143 226 297 253 114 74 2 4 7 0 1 15 12 44 58 120 142 83 56 35 27 20 32 31 18 11 0 0 0 0 0 0 0 0 0 1 6 11 11 6
78 130 87 127 202 170 199 51 70 58 12 11 14 0 0 0 0 29 68 119 97 58 40 55 15 12 27 31 3 0 0 0 0 0 0 0 0 0 1 7 9 8 5
89 100 42 94 70 262 201 222 196 85 17 9 5 1 0 0 0 1 15 62 81 82 41 38 40 24 9 15 2 0 0 0 0 0 0 0 0 0 1 7 6 4 2
24 6 92 146 105 135 117 133 224 98 38 22 5 0 0 0 0 25 8 26 67 82 31 58 43 18 5 0 0 0 0 0 0 0 0 0 0 0 0 0 0 0 0
22 36 71 104 69 62 89 97 118 116 36 25 7 0 0 0 0 6 48 29 29 53 41 10 0 0 0 0 0 0 0 0 0 0 0 0 0 0 0 0 0 0 0
74 108 144 130 98 91 142 168 259 162 71 20 3 2 1 0 0 0 1 9 29 5 0 1 0 0 5 0 0 0 0 0 0 0 0 0 0 0 0 0 0 0 0
5 21 115 143 142 194 321 291 72 29 71 16 3 1 3 0 0 0 1 12 50 16 5 11 0 0 0 0 0 0 0 0 0 0 0 0 0 0 0 0 0 0 0
1 3 45 136 121 179 299 301 102 47 20 7 2 2 0 0 0 0 6 20 18 57 46 3 0 0 0 0 0 0 0 0 0 0 0 0 0 0 0 0 0 0 0
1 1 3 16 107 152 233 323 151 17 14 6 1 1 0 0 0 0 0 0 0 1 0 0 0 0 0 0 0 0 0 0 0 0 0 0 0 0 0 0 0 0 0
1 0 0 4 18 28 162 217 6 1 0 0 0 1 1 0 0 0 0 0 0 0 0 0 0 0 0 0 0 0 0 0 0 5 0 0 0 0 0 0 0 0 0
3 2 3 1 2 11 18 27 2 0 0 1 0 1 1 0 0 0 0 0 0 0 0 0 1 2 2 1 0 0 0 0 0 0 0 0 0 0 0 0 0 0 0
2 2 2 1 0 0 0 0 0 0 1 1 1 1 1 0 0 0 0 0 0 0 0 0 0 1 1 1 0 0 0 0 0 0 0 0 0 0 0 0 0 0 0
5 1 1 1 1 0 1 1 1 1 1 0 1 0 0 1 1 0 0 0 0 0 0 0 0 0 0 0 0 0 0 0 0 0 0 0 0 0 1 0 0 1 2
3 1 1 1 1 3 6 3 0 1 1 1 1 1 1 4 5 5 3 0 0 0 0 0 0 0 0 0 0 1 2 3 4 0 0 0 0 0 1 4 0 0 0
0 1 1 1 2 5 9 7 2 0 0 0 0 0 1 0 0 0 0 0 0 0 0 0 0 0 0 0 0 0 0 0 0 0 0 0 0 0 1 1 0 2 5
0 0 1 1 2 7 9 6 1 0 0 0 0 0 0 0 0 0 0 0 0 0 0 0 0 0 0 0 0 0 0 0 0 1 0 0 0 0 5 6 16 13 7
0 0 0 0 3 4 3 0 0 0 0 0 0 0 0 0 0 0 0 0 0 0 0 0 0 0 0 0 0 0 0 1 4 3 0 2 2 0 0 2 14 7 9
0 0 0 0 1 1 1 0 0 0 0 0 0 0 0 0 0 0 0 0 0 0 0 0 0 0 2 0 0 0 0 2 1 3 11 3 10 10 3 0 0 3 3
CIN
0 -1 -10 -3 0 0 -1 -1 0 -3 -2 0 -14 0 0 0 -6 -1 -6 -10 -1 0 0 0 0 0 0 0 0 0 0 0 0 0 0 0 0 0 0 0 0 0 0
-1 0 -1 -1 0 0 -6 0 0 -12 -2 -1 -19 -26 0 -2 0 -5 -5 -1 -6 -2 0 0 0 0 0 0 0 0 0 0 0 0 0 0 0 0 0 0 0 0 0
0 0 -5 -1 0 0 0 0 0 -12 -18 0 -5 0 -1 -5 0 -3 -5 -1 -9 -8 0 -1 0 -1 0 0 0 0 0 0 0 0 0 0 0 0 0 0 0 0 0
-1 0 0 0 -1 0 0 0 -1 -8 -17 -49 -29 -35 -4 -4 -3 -4 -14 0 -5 0 -11 -3 0 0 0 0 0 0 0 0 0 0 0 0 0 0 0 0 0 0 0
-4 -31 0 -1 -9 -13 -2 0 -4 -12 -5 -48 0 0 0 0 -24 -17 -2 -2 -3 -2 -1 -8 -3 -1 0 0 0 0 0 0 0 0 0 0 0 0 0 0 0 0 0
-24 -2 -27 -1 0 0 -10 -11 -26 -37 -46 -44 0 0 0 -21 -36 -9 -1 -10 -7 -10 -8 -13 -6 -5 0 0 0 -1 0 0 0 0 0 0 0 0 0 0 0 0 0
0 0 -5 -13 -28 -5 -18 -6 -13 -70 -38 -15 0 0 0 -15 -40 -39 -27 -16 -9 -14 -16 -19 -3 -10 -6 0 0 0 -1 0 0 0 0 0 0 0 0 0 0 0 0
-4 0 -13 -4 -22 -12 0 -7 -44 0 0 -1 -2 0 0 -6 -19 -12 -16 -22 -26 -14 -14 -9 -13 -13 -13 -3 -10 -4 -1 0 0 0 0 0 0 0 0 0 0 0 0
-1 -6 -23 -2 -43 -9 -4 -11 -41 0 0 0 -1 -16 -1 0 -3 -6 -4 -8 -28 -8 -18 -8 -5 -15 -32 -29 -17 0 0 0 0 0 0 0 0 0 0 0 0 0 0
0 -23 -10 -2 -2 -1 -3 -44 -33 -16 -72 -8 0 0 0 0 0 0 -7 -11 -23 -18 -15 -10 -10 -9 -1 -6 -8 0 0 0 0 0 0 0 0 0 0 0 0 0 0
0 0 -12 -2 -3 -9 0 -1 0 -1 -48 -9 -1 0 0 0 -1 -2 -3 -5 -9 -14 -32 -3 -4 -6 -3 -3 -6 0 0 0 0 0 0 0 0 0 0 0 0 0 0
-25 -21 -3 -3 -1 -29 -2 -5 0 -3 -27 -21 -1 0 0 -7 0 -14 -2 -28 -39 -15 -23 -3 -4 -8 -13 0 0 0 0 0 0 0 0 0 0 0 0 0 0 0 0
-39 -36 -25 -7 -9 -2 -2 -3 -6 -4 -19 -33 -46 0 0 0 0 -25 -42 -6 -5 -5 -26 -15 -6 0 0 0 0 0 0 0 0 0 0 0 0 0 0 0 0 0 0
-26 -27 -24 -13 -14 -1 -25 -8 -2 -1 -8 -24 -3 -1 0 0 0 -20 -6 -33 -8 -3 0 -83 -1 0 -11 0 0 0 0 0 0 0 0 0 0 0 0 0 0 0 0
-9 -44 -33 -22 -19 -13 -1 -1 -7 -8 -4 -4 -1 -1 -1 0 0 0 -77 -65 -11 -2 -30 -25 0 0 0 0 0 0 0 0 0 0 0 0 0 0 0 0 0 0 0
0 0 -58 -37 -34 -30 -1 -1 -3 -6 -3 -13 0 0 0 0 0 0 -40 -28 -19 -15 -4 -8 0 0 0 0 0 0 0 0 0 0 0 0 0 0 0 0 0 0 0
0 0 0 -108 -50 -36 -11 0 0 -20 -26 -21 -2 0 0 0 0 0 0 0 0 -64 0 0 0 0 0 0 0 0 0 0 0 0 0 0 0 0 0 0 0 0 0
0 0 -1 -2 -107 -116 -20 0 -20 -2 0 0 0 0 0 0 0 0 0 0 0 0 0 0 0 0 0 0 0 0 0 0 0 0 0 0 0 0 0 0 0 0 0
0 0 0 0 -1 -63 -22 -14 -7 0 0 0 0 0 0 0 0 0 0 0 0 0 0 0 0 0 0 0 0 0 0 0 0 0 0 0 0 0 0 0 0 0 0
0 0 0 0 0 0 0 0 0 0 0 0 0 0 0 0 0 0 0 0 0 0 0 0 0 0 0 0 0 0 0 0 0 0 0 -1 0 0 0 0 0 0 0
0 0 0 0 0 0 0 0 0 0 0 0 0 0 0 0 0 0 0 0 0 0 0 0 0 0 0 0 0 0 0 0 0 0 0 0 0 -6 -19 0 -1 -6 -1
0 0 0 0 0 0 0 0 0 0 0 0 0 0 0 0 0 0 0 0 0 0 0 0 0 0 0 0 0 -1 -2 0 -1 0 0 0 0 0 -3 -5 0 0 0
0 0 0 0 0 0 0 0 0 0 0 0 0 0 0 -1 0 0 0 0 0 0 0 0 0 0 0 0 0 0 0 0 0 0 0 0 -2 0 -1 -4 -9 -2 -1
0 0 0 0 0 0 0 0 0 0 0 0 0 0 0 0 0 0 0 0 0 0 0 0 0 0 0 0 0 0 0 0 0 -3 0 0 -5 -6 -8 -7 -21 -13 -4
0 0 0 0 0 0 0 0 0 0 0 0 0 0 0 0 0 0 0 0 0 0 0 0 0 0 0 0 0 -1 -1 -1 -1 -6 -11 -2 -2 0 0 -7 -12 -15 -9
0 0 0 0 0 0 0 0 0 0 0 0 0 0 0 0 0 0 0 0 0 0 0 0 0 -4 -9 0 0 0 -1 -1 -2 -2 0 -1 -4 -3 -1 0 -11 -8 -11
Wind_Speed
4 4 3 5 5 5 5 5 8 5 6 5 2 4 6 6 14 6 5 10 12 16 18 19 18 18 19 20 21 21 21 22 22 23 23 23 23 24 24 24 23 23 23
4 5 4 6 5 4 4 6 6 5 6 6 2 4 5 10 12 6 5 7 13 15 17 18 17 17 18 19 20 19 20 20 21 21 22 22 22 22 22 22 22 23 23
5 7 5 6 6 5 6 6 7 7 6 3 5 7 5 9 11 7 7 7 7 15 15 15 17 17 17 19 18 18 19 19 19 20 20 21 20 21 21 21 21 22 21
4 6 5 4 2 3 3 5 6 2 5 5 2 3 3 6 11 8 7 7 5 9 10 14 16 16 17 18 17 17 17 17 18 18 19 19 19 19 19 19 19 20 20
7 5 6 4 4 3 4 5 3 6 6 5 5 6 8 6 4 5 8 7 9 8 7 12 13 14 15 16 15 16 15 15 16 16 17 17 17 17 18 18 18 18 17
6 6 4 5 5 5 4 3 6 4 5 5 6 7 4 4 5 4 7 6 7 9 7 8 6 8 13 13 14 14 14 13 14 14 15 15 15 15 15 16 16 16 16
5 7 5 5 6 7 6 6 3 9 4 6 7 6 4 3 6 4 4 3 4 8 7 6 5 4 5 9 11 12 12 11 11 12 12 13 12 12 12 12 14 14 14
7 8 7 6 7 6 9 8 8 5 2 7 5 3 4 3 3 3 1 4 6 5 7 9 8 9 6 6 7 9 8 9 9 9 9 9 10 10 9 10 11 12 13
8 8 7 6 7 7 6 8 9 6 5 4 8 3 4 3 4 0 4 4 7 6 6 8 6 9 9 6 7 6 7 6 6 6 6 6 6 6 6 8 9 10 11
8 5 7 7 7 6 9 9 9 9 9 9 6 2 1 3 5 4 3 3 5 5 4 2 5 4 4 7 9 8 7 5 4 4 4 4 4 4 4 6 7 9 9
7 8 8 8 7 5 7 10 10 8 9 8 7 2 1 2 3 5 5 4 4 4 2 3 1 3 2 3 4 7 7 6 4 4 3 3 3 2 3 5 6 7 8
1 6 8 5 6 6 8 9 9 9 9 7 5 4 3 3 6 4 5 9 8 6 5 4 4 3 4 2 3 9 7 6 5 5 4 3 3 4 4 4 5 7 7
4 5 7 6 4 7 7 8 8 9 10 9 10 6 4 3 2 2 2 6 8 3 2 1 1 1 3 3 4 7 8 7 6 5 5 6 6 5 3 4 5 6 6
6 7 7 5 3 8 6 9 7 7 8 8 10 8 6 2 2 2 2 3 5 3 5 7 7 5 3 4 5 6 5 8 6 5 7 7 6 5 4 4 4 5 6
3 5 6 7 6 5 8 9 6 6 7 8 9 9 7 6 4 3 3 0 4 5 7 7 3 5 3 2 3 4 4 8 7 9 9 7 5 4 3 4 4 3 4
3 4 3 5 5 8 8 7 7 8 9 7 6 9 7 5 5 5 5 4 2 3 5 3 4 4 4 3 4 2 8 8 10 9 7 4 3 3 3 3 2 1 2
3 4 5 4 5 6 7 7 6 7 7 7 7 10 10 10 6 6 4 2 2 4 3 2 4 4 3 4 4 6 4 5 4 5 3 4 3 3 3 3 2 2 2
1 2 3 4 4 5 5 7 5 6 7 7 7 8 8 8 9 7 5 4 2 1 2 3 2 2 4 5 4 4 3 4 2 3 1 5 5 8 6 4 3 2 4
4 3 3 4 4 4 1 3 6 7 7 7 7 7 8 10 10 5 6 4 3 2 3 3 3 1 2 1 3 3 1 1 1 1 3 4 3 5 10 5 4 4 4
3 3 3 3 5 6 7 8 9 9 9 8 8 8 7 6 7 8 6 5 3 4 3 3 3 2 2 1 1 1 1 2 2 2 3 0 2 3 2 1 4 6 5
5 6 7 8 8 7 6 9 10 10 9 9 9 9 8 11 13 9 5 5 4 3 3 3 2 1 1 1 2 2 3 5 5 2 2 3 2 3 5 5 5 4 6
7 7 9 8 9 6 17 18 12 10 11 11 10 9 9 14 14 15 13 10 6 4 3 2 3 3 3 3 1 2 3 2 2 3 2 3 4 2 3 2 6 3 5
8 9 9 10 10 10 21 22 21 11 12 11 11 10 9 8 11 10 15 16 14 13 13 5 7 6 7 6 4 1 1 2 3 5 3 4 1 1 1 2 3 2 0
8 8 9 10 10 11 22 24 23 12 11 10 10 10 9 9 8 8 9 10 10 11 9 8 9 8 8 6 5 4 4 4 2 3 3 4 2 3 1 2 9 6 6
9 10 10 11 11 11 22 23 17 12 11 10 9 10 11 10 10 10 9 9 10 10 13 17 14 12 11 10 9 3 4 3 2 3 3 3 3 5 5 4 4 5 6
9 10 11 11 16 11 17 18 13 8 11 10 11 12 15 11 11 8 6 6 7 7 7 7 6 6 6 5 6 5 4 4 4 2 3 3 3 3 4 3 4 2 4
Wind_Direction
225 225 250 278 189 202 190 197 207 218 218 190 229 179 149 147 94 105 116 121 119 111 102 100 98 96 91 88 84 78 73 70 67 64 63 60 59 59 56 55 58 56 55
216 228 220 239 225 223 185 196 207 208 193 178 163 287 161 114 107 117 149 127 124 116 110 106 105 101 96 91 87 83 78 74 71 67 66 64 60 59 59 59 56 54 53
235 218 235 228 240 207 202 195 207 211 149 127 5 342 356 116 130 152 141 133 125 111 108 110 106 102 103 94 90 85 79 76 74 71 67 66 64 61 60 57 57 57 57
231 268 238 239 277 270 177 162 164 179 141 154 174 1 343 137 127 168 122 136 136 118 112 119 110 109 106 101 94 89 86 83 76 72 72 69 63 65 62 59 56 59 56
208 224 262 190 142 87 165 164 153 151 156 142 85 49 354 73 60 98 124 141 128 112 115 110 118 115 114 110 108 95 88 83 79 74 73 71 68 63 64 60 58 56 55
212 191 218 215 187 147 124 122 137 135 135 133 90 63 57 12 69 62 114 120 122 123 126 118 121 123 120 116 110 104 96 89 83 78 72 70 65 63 63 61 56 52 49
232 215 197 214 193 160 159 146 149 144 121 138 111 83 38 357 74 73 93 106 152 141 141 134 138 125 121 113 121 112 104 93 83 76 74 71 68 64 60 54 54 50 45
192 194 210 212 197 189 175 149 153 128 105 171 143 121 134 69 42 29 319 214 203 163 144 170 180 162 152 127 85 78 97 101 92 83 73 69 66 63 58 54 48 43 39
189 237 200 220 205 193 182 160 157 155 144 186 172 136 138 168 132 161 228 239 234 171 179 213 127 175 136 117 136 106 94 104 101 90 78 67 59 58 56 52 42 33 31
201 201 222 219 209 190 174 164 163 163 150 181 181 58 358 136 159 166 232 232 230 230 202 168 146 187 163 136 84 107 116 109 113 96 79 65 52 42 44 42 35 26 21
205 191 218 214 220 195 192 173 174 169 166 183 176 135 141 137 185 156 164 175 216 223 185 168 103 110 153 131 156 134 140 137 129 115 94 71 48 25 64 36 22 16 15
174 213 216 204 189 199 174 180 174 172 172 172 167 143 149 178 185 160 172 191 175 191 185 183 165 179 147 194 111 132 157 161 155 144 136 117 109 90 61 28 13 11 7
190 200 205 210 174 197 199 163 171 175 179 179 179 173 175 154 136 100 340 169 175 158 150 128 198 200 189 200 194 171 171 186 179 170 158 137 116 99 81 48 30 24 14
196 188 184 203 224 215 211 181 182 181 181 187 176 170 158 103 90 114 88 101 155 148 183 178 196 184 200 208 78 158 175 174 186 188 155 134 123 118 94 79 60 39 12
191 208 213 222 209 231 225 184 175 186 184 181 177 172 167 148 142 123 130 202 191 155 184 189 148 190 172 128 123 199 198 153 161 142 133 133 138 119 118 102 72 53 27
236 241 214 198 222 231 231 198 175 178 182 178 172 177 149 133 135 140 153 179 238 240 125 78 81 144 159 175 66 315 85 123 129 123 125 141 152 137 141 117 109 89 21
256 260 259 262 209 207 210 213 171 173 185 178 178 169 157 146 147 133 120 102 27 18 62 48 90 105 111 124 62 56 48 70 84 112 139 209 208 195 169 169 191 257 287
96 254 257 269 236 228 244 183 146 154 158 160 159 164 170 157 147 139 134 124 97 172 177 139 70 80 67 30 49 74 44 53 32 136 290 272 255 232 201 205 249 313 125
347 321 240 210 232 230 91 103 124 127 123 127 131 135 142 149 139 131 107 134 155 90 82 100 111 92 84 82 70 63 58 27 276 161 241 280 280 257 220 229 188 159 154
358 48 51 104 106 91 100 104 106 107 106 111 112 117 111 102 129 128 106 93 65 71 63 80 77 84 87 84 78 152 214 228 232 227 223 261 54 121 125 76 257 176 188
61 60 65 63 79 88 98 106 105 108 106 91 84 80 85 105 98 96 106 88 92 72 68 70 84 98 123 148 199 190 218 196 206 224 273 203 164 205 185 211 230 216 223
74 71 73 75 81 89 103 100 96 92 89 87 84 77 77 81 89 94 98 101 103 109 118 136 169 146 96 79 160 227 259 217 234 71 305 287 129 289 287 221 66 360 271
75 69 74 80 83 92 101 98 92 88 90 87 87 86 85 91 99 101 97 92 80 65 47 54 67 42 63 33 337 307 241 342 340 102 356 294 211 276 289 62 79 297 227
67 69 71 75 85 92 100 99 93 89 87 90 97 105 114 110 96 103 99 85 71 54 50 71 69 62 50 25 34 11 6 348 289 73 22 292 81 317 9 236 176 176 219
89 79 72 76 85 95 105 105 104 105 112 116 96 86 85 91 94 100 99 97 90 86 79 82 86 88 78 53 16 347 18 333 14 88 58 320 29 351 333 306 112 181 237
102 97 93 88 92 97 103 110 109 109 102 98 91 75 72 82 65 42 101 116 110 115 119 124 134 138 144 106 49 32 16 16 19 2 42 334 347 9 318 34 15 349 295